Monticello, KY

10:44 AM EST on December 09, 2019 (GMT -0500)
Wayne County

Weather History for KEKQ - September, 2019

Change the Weather History Date:

Tuesday, September 3, 2019

  Actual Average Record
Temperature  
Mean Temperature 72 °F -  
Max Temperature 88 °F 85 °F 97 °F (2011)
Min Temperature 57 °F 62 °F 46 °F (1967)
Cooling Degree Days 8    
Growing Degree Days 22 (Base 50)    
Moisture  
Dew Point 62 °F    
Average Humidity 92    
Maximum Humidity 100    
Minimum Humidity 48    
Precipitation  
Precipitation 0.00 in - - ()
Sea Level Pressure  
Sea Level Pressure 30.07 in    
Wind  
Wind Speed 6 mph (NNW)    
Max Wind Speed 14 mph    
Max Gust Speed 18 mph    
Visibility 4 miles    
Events Fog    
Averages and records for this station are not official NWS values.
T = Trace of Precipitation, MM = Missing Value Source: NWS Daily Summary

Daily Weather History Graph

Daily Weather History Graph

Search for Another Location

Airport or City:

Astronomy

Sep. 03, 2019 Rise Set
Actual Time 6:11 AM CDT 7:05 PM CDT
Civil Twilight 5:45 AM CDT 7:31 PM CDT
Nautical Twilight 5:14 AM CDT 8:02 PM CDT
Astronomical Twilight 4:41 AM CDT 8:35 PM CDT
Moon 10:56 AM CDT (9/3) 10:09 PM CDT (9/3)
Length of Visible Light 13h 46m
Length of Day
12h 53m
Waxing Crescent, 25% of the Moon is Illuminated
Sep 3
Waxing Crescent
Sep 5
First Quarter
Sep 13
Full
Sep 21
Last Quarter
Sep 28
New

Hourly Weather History & Observations

Time (CDT) Temp. Heat Index Dew Point Humidity Pressure Visibility Wind Dir Wind Speed Gust Speed Precip Events Conditions
12:42 AM 62.6 °F - 62.6 °F 100% 30.10 in 1.8 mi Calm Calm - N/A   Clear
12:52 AM 62.6 °F - 62.6 °F 100% 30.10 in 4.0 mi Calm Calm - N/A   Clear
12:56 AM 62.1 °F - 62.1 °F 100% 30.07 in 2.0 mi NW 8.1 mph - N/A   Clear
1:11 AM 62.6 °F - 62.6 °F 100% 30.09 in 9.0 mi Variable 4.6 mph - N/A   Clear
1:28 AM 60.8 °F - 60.8 °F 100% 30.09 in 1.8 mi NNW 9.2 mph - N/A   Clear
1:37 AM 62.6 °F - 62.6 °F 100% 30.09 in 0.8 mi Calm Calm - N/A   Clear
1:40 AM 60.8 °F - 60.8 °F 100% 30.09 in 1.2 mi Variable 6.9 mph - N/A   Clear
1:48 AM 60.8 °F - 60.8 °F 100% 30.08 in 3.0 mi NNE 9.2 mph - N/A   Clear
1:51 AM 60.8 °F - 60.8 °F 100% 30.08 in 1.8 mi NNE 9.2 mph - N/A   Clear
1:56 AM 62.1 °F - 62.1 °F 100% 30.05 in 2.5 mi NNE 9.2 mph - N/A   Clear
2:06 AM 60.8 °F - 60.8 °F 100% 30.08 in 9.0 mi West 5.8 mph - N/A   Clear
2:36 AM 60.8 °F - 60.8 °F 100% 30.08 in 0.8 mi Calm Calm - N/A   Clear
2:38 AM 60.8 °F - 60.8 °F 100% 30.08 in 0.5 mi North 4.6 mph - N/A Fog Fog
2:50 AM 60.8 °F - 60.8 °F 100% 30.07 in 1.0 mi WNW 8.1 mph - N/A   Mist
2:53 AM 60.8 °F - 60.8 °F 100% 30.07 in 2.5 mi West 8.1 mph - N/A   Partly Cloudy
2:56 AM 61.0 °F - 61.0 °F 100% 30.04 in 4.0 mi West 8.1 mph - N/A   Partly Cloudy
2:59 AM 60.8 °F - 60.8 °F 100% 30.07 in 1.2 mi Variable 5.8 mph - N/A   Partly Cloudy
3:01 AM 60.8 °F - 60.8 °F 100% 30.07 in 0.8 mi Calm Calm - N/A   Mist
3:07 AM 60.8 °F - 60.8 °F 100% 30.07 in 0.2 mi NNE 9.2 mph - N/A Fog Fog
3:14 AM 60.8 °F - 60.8 °F 100% 30.07 in 0.8 mi Variable 6.9 mph - N/A   Mist
3:18 AM 60.8 °F - 60.8 °F 100% 30.07 in 1.5 mi NE 8.1 mph - N/A   Partly Cloudy
3:25 AM 60.8 °F - 60.8 °F 100% 30.07 in 2.0 mi NNE 8.1 mph - N/A   Partly Cloudy
3:37 AM 60.8 °F - 60.8 °F 100% 30.07 in 1.0 mi Variable 6.9 mph - N/A   Mist
3:51 AM 60.8 °F - 60.8 °F 100% 30.07 in 1.5 mi North 8.1 mph - N/A   Mostly Cloudy
3:56 AM 60.1 °F - 60.1 °F 100% 30.04 in 0.8 mi WNW 8.1 mph - N/A   Mostly Cloudy
4:05 AM 60.8 °F - 60.8 °F 100% 30.07 in 0.5 mi West 9.2 mph - N/A Fog Fog
4:08 AM 60.8 °F - 60.8 °F 100% 30.07 in 1.0 mi Variable 3.5 mph - N/A   Mist
4:12 AM 59.0 °F - 59.0 °F 100% 30.07 in 2.5 mi Calm Calm - N/A   Partly Cloudy
4:20 AM 59.0 °F - 59.0 °F 100% 30.07 in 3.0 mi West 8.1 mph - N/A   Partly Cloudy
4:25 AM 59.0 °F - 59.0 °F 100% 30.07 in 1.8 mi NNW 9.2 mph - N/A   Clear
4:33 AM 60.8 °F - 60.8 °F 100% 30.07 in 0.8 mi Calm Calm - N/A   Mist
4:39 AM 59.0 °F - 59.0 °F 100% 30.07 in 0.2 mi NNE 10.4 mph - N/A Fog Fog
4:56 AM 59.0 °F - 59.0 °F 100% 30.04 in 0.2 mi Variable 3.5 mph - N/A Fog Fog
5:23 AM 57.2 °F - 57.2 °F 100% 30.08 in 0.5 mi West 8.1 mph - N/A Fog Fog
5:32 AM 59.0 °F - 59.0 °F 100% 30.09 in 0.2 mi West 8.1 mph - N/A Fog Fog
5:42 AM 57.2 °F - 57.2 °F 100% 30.09 in 0.5 mi Variable 6.9 mph - N/A Fog Fog
5:56 AM 57.9 °F - 57.9 °F 100% 30.06 in 0.5 mi WNW 8.1 mph - N/A Fog Fog
6:04 AM 57.2 °F - 57.2 °F 100% 30.09 in 0.2 mi NNE 10.4 mph - N/A Fog Fog
6:53 AM 60.8 °F - 60.8 °F 100% 30.10 in 0.8 mi NE 8.1 mph - N/A   Mostly Cloudy
6:56 AM 61.0 °F - 61.0 °F 100% 30.07 in 1.2 mi NE 10.4 mph - N/A   Mostly Cloudy
7:06 AM 60.8 °F - 60.8 °F 100% 30.10 in 2.0 mi North 5.8 mph - N/A   Scattered Clouds
7:13 AM 62.6 °F - 62.6 °F 100% 30.10 in 5.0 mi NW 8.1 mph - N/A   Partly Cloudy
7:56 AM 70.0 °F - 66.9 °F 90% 30.08 in 10.0 mi WNW 10.4 mph - N/A   Clear
8:56 AM 75.0 °F - 69.1 °F 82% 30.08 in 10.0 mi NW 8.1 mph - N/A   Clear
9:56 AM 82.0 °F 85.9 °F 70.0 °F 67% 30.07 in 10.0 mi ENE 8.1 mph - N/A   Clear
10:56 AM 82.9 °F 85.0 °F 66.0 °F 56% 30.08 in 10.0 mi North 10.4 mph - N/A   Clear
11:56 AM 84.9 °F 88.8 °F 69.1 °F 59% 30.06 in 10.0 mi Variable 5.8 mph 18.4 mph N/A   Mostly Cloudy
12:56 PM 86.0 °F 90.1 °F 69.1 °F 57% 30.06 in 10.0 mi West 10.4 mph - N/A   Scattered Clouds
1:56 PM 86.0 °F 89.4 °F 68.0 °F 55% 30.04 in 10.0 mi Variable 5.8 mph - N/A   Clear
2:56 PM 87.1 °F 89.9 °F 66.9 °F 51% 30.01 in 10.0 mi North 10.4 mph 16.1 mph N/A   Clear
3:56 PM 88.0 °F 90.3 °F 66.0 °F 48% - 10.0 mi NNE 8.1 mph - N/A   Clear
4:56 PM 87.1 °F 89.9 °F 66.9 °F 51% - 10.0 mi North 13.8 mph - N/A   Clear
5:56 PM 84.0 °F 87.8 °F 69.1 °F 61% 30.00 in 10.0 mi Variable 4.6 mph - N/A   Clear
6:56 PM 75.0 °F - 70.0 °F 84% 30.01 in 10.0 mi NNE 11.5 mph - N/A   Clear
7:56 PM 71.1 °F - 66.9 °F 87% 30.01 in 10.0 mi West 5.8 mph - N/A   Clear
8:56 PM 66.0 °F - 64.9 °F 96% 30.03 in 10.0 mi Variable 4.6 mph - N/A   Clear
9:56 PM 64.9 °F - 64.0 °F 97% 30.03 in 10.0 mi West 3.5 mph - N/A   Clear
10:56 PM 64.0 °F - 64.0 °F 100% 30.01 in 10.0 mi WNW 3.5 mph - N/A   Clear
11:56 PM 66.0 °F - 64.9 °F 96% 30.00 in 10.0 mi NE 6.9 mph - N/A   Clear